Location: Warwick
(41.7000°N, 71.4170°W)
Time: 20:23:24
(UTC-04:00)

BREEZE-M DEB (TANK) - Visible Passes

Search period start: 01 August 2014 00:00
Search period end: 11 August 2014 00:00
Orbit: 278 x 16084 km, 49.5° (Epoch: 30 July)

Date Brightness Start Highest point End Pass type
(mag) Time Alt. Az. Time Alt. Az. Time Alt. Az.
01 Aug 9.5 00:00:00 38° ENE 23:59:45 38° ENE 00:32:47 10° NE visible
01 Aug 8.7 02:29:31 10° WSW 05:17:31 78° N 05:51:48 10° E visible
01 Aug 8.4 21:31:17 10° S 23:12:22 60° E 00:52:17 10° NE visible
02 Aug 8.5 02:51:36 10° WSW 05:39:56 79° NNE 06:09:52 10° ESE visible
02 Aug 8.4 21:47:28 10° S 23:29:55 65° ESE 01:11:36 10° ENE visible
03 Aug 8.4 03:14:36 10° W 06:01:23 81° NNE 06:27:46 10° ESE visible
03 Aug 8.4 22:04:01 10° S 23:48:19 71° ESE 01:30:44 10° ENE visible
04 Aug 8.2 03:38:40 10° W 06:22:02 84° NNE 06:45:32 10° ESE visible
04 Aug 8.5 22:20:55 10° SSW 00:07:44 76° ESE 01:49:44 10° ENE visible
05 Aug 8.0 04:03:52 10° W 06:41:58 88° NNE 07:03:09 10° ESE visible
05 Aug 9.0 18:41:53 10° E 19:31:36 15° ENE 20:16:03 10° NE visible
05 Aug 8.5 22:38:06 10° SSW 00:28:22 81° ESE 02:08:36 10° ENE visible
06 Aug 7.8 04:30:16 10° W 07:01:17 87° SW 07:20:37 10° SE visible
06 Aug 8.9 18:39:42 10° E 19:44:47 19° ENE 20:43:16 10° NE visible
06 Aug 8.6 22:55:35 10° SSW 00:50:27 86° SE 02:27:20 10° ENE visible
07 Aug 7.7 04:57:42 10° WNW 07:20:02 82° SW 07:37:56 10° SE visible
07 Aug 8.7 18:43:26 10° ESE 19:58:08 24° ENE 21:07:21 10° NE visible
07 Aug 8.6 23:13:21 10° SSW 01:14:15 90° NW 02:45:57 10° ENE visible
08 Aug 7.6 05:25:54 10° WNW 07:38:16 75° SW 07:55:04 10° SE visible
08 Aug 8.6 18:51:03 10° ESE 20:11:39 28° ENE 21:29:49 10° NE visible
08 Aug 8.7 23:31:24 10° SW 01:39:58 86° NW 03:04:25 10° ENE visible
09 Aug 8.5 19:01:19 10° SE 20:25:23 33° E 21:51:17 10° NE visible
09 Aug 8.8 23:49:46 10° SW 02:07:21 82° NNW 03:22:46 10° E visible
10 Aug 8.4 19:13:26 10° SE 20:39:22 38° E 22:12:05 10° NE visible
